Flag for Germany Weather past 2 weeks in Bayreuth, Bavaria, Germany

Now
36 °F

Light rain. Low clouds.


Feels Like: 30 °F
Forecast: 28 / 42 °F
Wind: 7 mph from West

Location: Grafenwoehr

Current Time: Apr 2, 2015 at 12:15:49 PM

Latest Report: Apr 2, 2015 at 11:58 AM


Visibility: N/A

Pressure: 29.74 "Hg

Humidity: 93%

Dew point: 34 °F

Location of BayreuthLocation

Historic Weather in Bayreuth — Graph

°F

Bayreuth temperature yesterday

Maximum temperature yesterday: 42 °F (at 4:58 PM)
Minimum temperature yesterday: 32 °F (at 8:02 PM)
Average temperature yesterday: 37 °F

Past Weeks' High & Low Weather Summary

 TemperatureHumidityPressure
High63 °F (Mar 25, 2:58 PM)100% (Mar 19, 3:58 AM)30.33 "Hg (Mar 19, 3:58 AM)
Low23 °F (Mar 21, 5:58 AM)27% (Mar 20, 2:58 PM)29.37 "Hg (Mar 30, 12:00 AM)
Average42 °F76%29.92 "Hg
* Reported Mar 18 9:58 AM — Apr 2 10:58 AM, Bayreuth, Weather by CustomWeather, © 2015

Note: Actual official high and low records may vary slightly from our data, if they occured in-between our weather recording intervals... More about our weather records

Advertising

Bayreuth weather history for previous 24 hours

 ConditionsComfort  
Time TempWeatherWind HumidityBarometerVisibility
10:58 AM
Thu, Apr 2
34 °FLight snow. Fog.9 mph95%29.76 "Hg6 mi
9:58 AM34 °FLight snow. Fog.6 mph100%29.79 "Hg5 mi
8:58 AM34 °FLight snow. Low clouds.7 mph100%29.83 "HgN/A
8:01 AM34 °FLight snow. Fog.8 mph93%29.79 "Hg5 mi
6:58 AM34 °FLight snow. Fog.9 mphN/A29.87 "Hg5 mi
5:58 AM36 °FLight rain. Low clouds.13 mph87%29.89 "HgN/A
5:01 AM36 °FLight rain. Mostly cloudy.9 mph87%29.88 "HgN/A
4:04 AM36 °FLight rain. Overcast.12 mph87%29.91 "HgN/A
2:58 AM34 °FPassing clouds.10 mph90%30.00 "HgN/A
1:58 AM33 °FLight snow. Overcast.6 mph92%30.05 "HgN/A
12:58 AM34 °FPartly cloudy.5 mph87%30.07 "HgN/A
11:58 PM
Wed, Apr 1
34 °FPartly cloudy.8 mph88%30.08 "HgN/A
11:00 PM34 °FPassing clouds.6 mph93%30.02 "HgN/A
9:58 PM34 °FLight snow. Fog.13 mph87%30.07 "Hg6 mi
9:00 PM34 °FOvercast.13 mph93%30.00 "HgN/A
8:02 PM32 °FLight snow. Ice fog.8 mph100%29.99 "Hg5 mi
7:01 PM36 °FCloudy.13 mph87%29.96 "HgN/A
6:58 PM36 °FCloudy.10 mph87%30.03 "HgN/A
5:58 PM39 °FScattered clouds.15 mph72%30.01 "HgN/A
5:03 PM41 °FLight rain. Mostly cloudy.17 mph66%29.94 "HgN/A
4:58 PM42 °FMostly cloudy.18 mph60%29.99 "HgN/A
3:58 PM41 °FScattered clouds.17 mph61%29.98 "HgN/A
2:58 PM41 °FPassing clouds.16 mph63%29.98 "HgN/A
1:58 PM41 °FPartly sunny.14 mph67%29.98 "HgN/A
12:58 PM38 °FLight rain. Mostly cloudy.13 mph71%30.00 "HgN/A
12:02 PM37 °FLight rain. Mostly cloudy.17 mph70%29.92 "HgN/A
Weather by CustomWeather, © 2015

See weather overviewHow to use our weather pages